Temperature
15 15 15 16 16 16 17 19 20 20 20 19 19 19 18 17 17 15 13 13 13 14 14 14 13 13 13 13 14 14 14 14 14 14 14 14 14 14 14 14 14 14 14 14 14 14 14 14 14
15 15 15 16 16 16 18 19 19 19 18 18 18 18 18 16 15 13 13 13 13 13 13 13 13 13 13 13 13 13 13 13 13 13 13 13 14 14 14 14 14 14 14 14 14 14 14 14 14
15 15 16 16 16 16 18 19 18 17 18 18 17 16 16 15 14 13 13 13 13 13 13 13 13 13 13 13 13 13 13 13 13 13 13 13 13 13 13 13 14 14 14 14 14 14 14 14 14
14 15 16 16 16 17 18 18 18 17 17 17 17 15 14 13 13 12 13 12 12 12 13 13 13 13 13 13 13 13 13 13 13 13 13 13 13 13 13 13 13 13 13 14 14 14 14 14 14
14 15 15 15 16 17 18 18 18 17 17 17 17 15 13 12 12 12 12 12 12 12 12 12 12 12 12 12 12 12 12 13 13 13 13 13 12 13 13 13 13 13 13 13 13 13 14 14 13
14 16 15 15 16 17 17 17 18 17 17 16 16 15 12 12 12 12 12 12 12 12 12 12 12 12 12 12 12 12 12 12 12 12 12 12 12 12 12 13 13 13 13 13 13 13 13 13 13
14 14 15 16 16 17 17 17 17 16 16 15 15 14 12 11 12 12 11 11 11 11 11 11 11 12 12 12 12 12 12 12 12 12 12 12 12 12 12 12 12 12 13 13 13 13 13 13 13
14 14 15 15 16 16 16 16 15 15 15 14 14 14 12 11 12 11 11 11 11 11 11 11 11 11 11 11 11 11 12 12 12 12 12 12 12 12 12 12 12 12 12 12 13 13 12 12 12
14 13 13 15 16 15 16 15 15 14 13 13 12 12 11 11 11 11 11 10 10 10 10 11 11 11 11 11 11 11 11 11 11 11 11 12 12 12 12 12 12 12 12 12 12 12 12 12 12
13 12 13 14 15 14 15 14 14 13 13 12 11 11 11 11 10 10 10 10 10 10 10 10 10 10 10 10 11 11 11 11 11 11 11 11 11 11 11 11 11 11 12 12 12 12 12 12 11
13 12 13 13 13 13 13 13 13 13 12 12 11 10 10 10 9 10 10 10 10 10 10 10 10 10 10 10 10 10 10 10 10 11 11 11 11 11 11 11 11 11 11 11 11 11 11 11 11
13 12 13 12 12 12 12 12 12 11 11 11 11 11 10 10 9 9 9 9 9 9 9 9 9 9 10 10 10 10 10 10 10 10 10 10 10 10 10 10 10 10 11 11 11 11 11 11 11
12 11 12 11 11 11 11 11 11 10 10 10 10 10 10 9 9 9 9 9 9 9 9 9 9 9 9 9 9 9 10 10 10 10 10 10 10 10 10 10 10 10 10 10 10 10 10 10 10
11 11 11 11 11 11 10 10 10 9 9 10 10 9 9 9 9 8 8 8 8 8 8 8 8 8 9 9 9 9 9 9 9 9 9 10 10 10 10 10 10 10 10 10 10 10 10 10 10
11 10 10 11 11 10 10 9 9 9 9 9 9 9 8 8 8 8 8 8 8 8 8 8 8 8 8 8 8 9 9 9 9 9 9 9 9 9 9 9 9 9 9 9 10 10 10 10 9
11 10 9 10 10 10 9 8 9 9 9 8 8 8 8 8 7 8 8 8 8 7 7 8 8 8 8 8 8 8 8 8 8 8 8 9 9 9 9 9 9 9 9 9 9 9 9 9 9
9 9 9 10 10 10 9 8 8 8 8 8 8 8 7 7 7 7 7 7 7 7 7 7 7 8 7 7 7 7 8 8 8 8 8 8 8 8 8 9 9 9 8 8 9 9 9 9 8
9 9 9 9 10 9 8 8 8 8 8 8 7 7 7 7 6 7 7 7 7 7 7 7 7 7 7 7 7 7 7 7 7 7 7 8 8 8 8 8 8 8 8 8 8 8 8 8 8
9 9 9 9 9 9 8 8 7 8 7 7 7 6 6 6 6 6 6 6 6 6 6 6 6 6 6 6 6 6 6 7 7 7 7 7 7 7 7 7 7 7 8 8 8 8 7 7 7
9 8 8 8 9 9 8 8 8 7 7 7 6 6 6 5 5 5 5 5 5 6 6 6 6 6 6 6 6 6 6 6 6 6 6 6 6 7 7 7 7 7 7 7 7 7 7 7 7
8 8 7 7 7 8 7 7 7 7 7 7 7 6 6 5 5 4 4 4 5 5 5 5 5 5 5 5 5 5 5 5 5 6 6 6 6 6 6 6 6 6 6 7 6 7 7 7 6
7 7 7 7 6 6 7 5 7 7 6 6 6 5 5 5 4 4 4 4 4 4 4 4 5 5 5 5 5 5 5 5 5 5 5 5 5 5 6 6 6 6 6 6 6 6 6 6 6
6 7 7 6 6 5 6 5 6 6 6 5 5 5 5 4 4 3 3 3 4 4 4 4 4 4 4 4 4 4 4 4 5 5 5 5 5 5 5 5 5 5 5 5 5 6 5 5 5
6 6 6 6 5 4 6 5 6 5 6 6 5 5 4 4 3 3 3 3 3 3 3 3 3 3 3 3 3 4 4 4 4 4 4 4 4 4 4 4 5 5 5 5 5 5 5 5 5
5 4 4 5 4 5 6 5 5 6 6 5 5 4 4 3 2 2 2 2 3 3 3 2 3 3 3 3 3 3 3 3 3 4 4 4 4 4 4 4 4 4 4 4 4 4 4 4 4
5 5 4 4 5 5 5 5 5 5 5 5 4 4 3 2 2 2 2 2 2 2 2 2 2 2 2 2 2 2 2 2 3 3 3 3 4 4 4 4 3 4 4 4 4 4 4 4 4
4 4 5 4 3 3 5 5 5 4 4 4 3 3 2 1 1 1 1 1 1 1 2 2 2 2 2 1 1 1 2 2 2 2 2 3 3 3 3 3 3 3 3 3 3 3 3 3 3
4 4 3 3 3 4 5 5 5 3 3 3 2 2 1 1 0 0 0 1 1 1 1 1 1 1 1 1 1 1 1 1 2 2 2 2 2 2 2 2 2 2 2 2 2 2 2 2 2
3 3 3 3 3 3 3 4 4 3 3 2 1 1 1 0 -0 -0 -0 -0 0 0 0 1 1 1 1 1 0 1 1 1 1 1 1 1 2 2 2 2 2 2 2 2 2 2 2 2 2
3 3 2 2 2 2 2 3 3 3 2 2 1 1 0 -0 -1 -1 -1 -1 -0 -0 -0 -0 -0 -0 -0 -0 -0 0 0 0 0 1 1 1 1 1 1 1 1 2 2 2 2 1 1 1 1
Wind_Speed
10 10 6 2 3 4 8 4 2 0 1 3 5 3 3 3 3 5 3 4 7 7 9 8 7 7 8 9 9 10 9 9 9 9 9 10 10 10 11 11 12 12 13 14 15 15 15 14 15
9 6 4 3 4 6 6 4 2 2 2 3 4 3 2 3 6 6 3 4 6 8 9 8 8 8 9 9 9 9 9 9 9 9 9 9 10 10 10 11 12 12 13 14 14 15 15 14 14
8 6 3 3 5 7 4 2 4 5 3 1 3 3 3 3 5 4 4 5 6 7 9 8 9 9 9 9 9 9 9 9 9 9 9 9 10 10 10 11 11 12 13 13 13 14 14 13 13
4 3 4 5 9 7 4 1 3 3 2 1 3 3 3 5 4 5 5 5 6 7 9 9 9 9 9 9 9 9 9 8 8 9 9 9 9 10 11 11 11 12 13 13 13 13 13 13 12
4 4 6 7 10 6 3 2 1 0 2 2 2 2 3 4 7 7 5 5 6 6 9 9 9 9 8 8 8 8 8 8 8 9 9 8 9 10 10 10 11 12 12 13 12 12 13 12 12
3 4 6 9 9 6 3 2 2 3 1 1 1 2 3 4 6 5 5 5 6 6 8 8 8 8 8 8 8 8 8 8 8 8 9 9 9 9 10 11 11 12 12 12 12 12 12 12 11
4 4 7 8 7 6 3 1 2 3 2 0 1 2 4 4 4 4 5 5 6 7 7 7 7 7 8 8 8 7 8 8 9 9 9 10 10 10 10 11 11 11 11 12 12 12 11 11 11
4 3 7 8 8 6 1 1 1 2 1 2 2 1 3 3 4 4 5 5 5 6 6 6 6 7 7 7 8 8 7 8 8 8 9 9 9 9 10 10 10 11 11 11 11 12 11 11 11
3 4 7 7 6 3 0 1 1 1 1 1 2 2 4 7 6 5 4 4 4 4 4 5 5 6 6 6 7 8 7 7 7 8 8 8 8 8 9 10 10 10 11 11 11 11 11 11 10
3 6 7 4 4 2 2 2 1 1 1 2 1 4 6 6 5 5 4 4 4 3 3 3 4 5 5 5 6 6 6 6 6 7 7 7 8 8 9 10 10 10 10 10 10 9 9 8 8
4 6 4 3 4 3 3 3 3 3 3 2 2 4 5 4 3 3 4 4 4 4 3 3 4 4 5 5 5 5 5 5 5 6 6 7 8 8 8 8 8 8 8 8 7 7 7 8 8
5 5 4 3 4 4 4 4 3 4 3 1 2 4 5 5 4 4 4 4 3 3 3 3 3 4 4 5 4 5 5 4 4 5 6 6 5 5 5 5 5 5 5 5 5 6 7 8 8
7 5 3 2 2 2 3 5 4 5 3 2 2 5 5 5 4 3 3 3 4 3 3 3 3 3 3 4 4 4 5 5 5 5 6 6 5 4 4 5 5 5 5 5 5 6 6 6 7
3 3 4 4 4 4 4 6 4 5 2 2 3 3 3 4 4 3 3 3 4 4 3 3 2 2 3 3 3 4 5 5 6 5 6 6 6 4 4 4 4 5 5 5 5 5 5 5 6
3 5 6 7 6 4 3 6 6 5 3 3 2 3 4 3 4 4 3 3 3 3 3 3 3 2 2 3 3 4 5 6 6 5 6 6 6 5 5 4 4 4 5 5 5 6 6 5 5
6 6 6 5 5 4 4 8 3 3 5 4 3 3 3 3 3 3 4 4 3 3 3 3 2 2 2 2 3 4 5 5 5 5 5 6 6 6 5 4 3 4 5 5 4 3 3 3 3
5 6 6 4 4 4 5 6 2 2 3 3 3 2 2 2 2 3 3 3 3 3 3 3 3 3 2 2 3 4 5 5 5 5 5 5 5 5 5 4 4 5 4 4 3 3 3 3 4
4 5 6 5 3 4 6 7 3 2 3 3 3 2 2 2 2 2 3 3 3 3 3 3 3 3 2 2 2 3 3 4 5 5 5 5 5 5 5 4 4 5 4 3 3 3 3 3 4
6 6 7 6 2 5 8 8 6 4 3 3 3 3 1 2 2 3 3 3 4 3 3 3 3 3 2 2 2 2 2 2 3 4 4 5 4 5 5 4 4 4 3 3 4 3 4 3 4
6 7 8 5 3 5 7 9 6 6 6 5 5 4 3 1 2 2 3 3 3 3 2 2 2 3 3 2 2 2 2 2 2 3 4 5 4 4 4 4 3 3 3 4 3 3 3 2 2
6 6 6 6 5 6 6 7 6 4 5 4 3 3 3 3 2 1 2 1 2 2 2 2 2 2 2 1 1 2 2 2 2 2 2 3 3 4 4 4 4 3 3 3 3 3 3 3 1
6 4 6 6 5 4 4 6 5 5 5 5 4 3 2 1 1 1 1 1 1 1 2 2 2 2 2 2 3 4 3 3 2 2 2 2 3 3 4 4 4 4 3 3 3 2 2 4 3
4 6 6 7 6 6 5 5 5 4 5 6 5 4 3 2 2 1 1 1 1 1 1 1 2 2 2 3 3 4 3 2 2 3 3 2 2 2 3 3 3 4 3 3 3 3 2 2 3
4 4 5 4 3 6 7 6 5 4 5 5 6 5 4 3 2 2 2 2 1 1 0 1 2 2 2 3 3 4 4 4 4 4 3 2 2 1 2 3 2 3 3 4 3 3 3 2 2
2 2 1 2 3 6 2 4 5 1 1 4 5 5 4 3 3 2 2 1 1 1 0 1 1 1 1 2 3 3 4 5 6 5 5 4 3 2 3 2 2 3 3 3 3 3 2 3 3
3 2 2 3 3 3 3 6 3 2 3 4 4 5 4 4 3 2 1 1 1 1 1 1 1 1 1 2 2 2 3 3 3 4 4 4 4 3 3 3 2 3 4 4 3 2 2 2 3
2 2 2 2 4 4 5 3 2 3 3 2 4 4 3 3 3 2 2 2 1 0 0 1 2 1 1 1 1 1 2 2 3 3 3 3 3 3 3 4 3 3 3 4 4 3 3 3 3
2 2 1 2 3 5 5 4 3 3 3 2 2 2 1 2 2 2 2 2 1 1 1 1 2 2 2 1 2 2 2 2 1 2 3 3 3 3 3 4 4 3 4 4 3 3 3 4 3
2 2 2 3 3 3 4 4 2 2 3 3 1 1 1 1 0 1 1 1 1 0 0 0 1 1 1 2 2 2 2 2 2 2 3 3 3 3 4 4 4 4 5 5 4 4 5 5 4
2 3 3 3 4 3 4 5 1 2 2 2 1 1 1 1 1 1 1 1 1 1 1 1 1 1 2 2 2 2 2 2 2 3 2 2 3 3 3 4 5 5 5 5 6 6 6 6 6
Wind_Direction
294 268 250 252 241 234 242 249 284 72 50 35 31 35 48 29 31 104 130 66 81 104 119 124 113 112 109 105 102 98 98 95 93 91 92 91 91 90 87 86 84 82 82 80 79 78 78 79 78
286 266 248 236 235 236 239 214 223 57 55 52 45 26 57 72 70 98 97 68 93 105 114 119 112 110 111 108 104 99 99 98 96 93 92 93 93 93 90 89 88 86 86 83 81 79 78 80 80
274 257 242 227 232 239 245 87 90 84 61 76 94 30 13 63 82 96 89 89 94 97 104 110 111 108 107 109 106 104 100 100 99 95 91 91 91 92 92 92 89 89 88 86 84 83 81 82 81
263 233 240 239 242 247 264 5 78 102 94 31 113 103 79 46 54 79 90 99 98 92 97 102 106 107 106 106 107 106 103 98 99 96 93 92 92 92 94 94 92 92 91 90 87 86 84 84 83
246 241 230 234 243 245 266 347 58 209 181 152 134 136 101 60 71 84 93 98 101 91 95 100 96 98 100 104 106 106 103 100 98 97 96 95 97 96 96 96 93 94 93 92 91 89 88 86 82
242 241 234 237 238 228 208 226 247 236 222 146 140 162 115 93 84 99 101 99 92 90 94 102 99 96 96 96 104 104 104 100 95 94 96 95 97 99 98 97 96 95 95 94 92 91 90 87 82
252 247 248 250 249 241 218 191 231 233 225 217 251 158 133 113 81 102 104 98 88 89 88 92 98 99 95 91 90 94 97 96 92 87 92 91 89 94 95 96 96 95 97 96 92 91 90 88 84
280 274 252 250 250 250 205 201 326 345 319 18 354 204 145 131 107 102 101 93 91 85 82 84 92 94 92 90 86 86 89 99 96 90 89 91 89 88 90 94 95 95 97 96 95 93 91 88 84
275 254 250 254 258 258 150 206 128 39 46 41 34 33 71 111 116 105 100 91 96 89 82 76 79 86 89 93 87 82 84 97 101 96 93 88 86 86 83 88 92 96 97 97 97 98 95 89 82
227 240 251 292 312 313 327 313 246 195 211 204 112 75 92 106 127 131 140 139 125 111 100 78 77 80 85 90 86 82 82 85 93 98 96 92 88 86 85 85 88 91 94 96 99 99 96 88 80
222 244 259 302 330 330 316 311 297 239 243 238 206 142 129 130 147 162 163 158 149 139 116 95 76 78 79 78 87 81 80 81 82 92 87 90 87 86 86 84 83 85 87 87 94 92 84 81 78
244 261 275 289 318 311 294 282 281 270 258 345 99 141 148 161 176 187 174 165 154 138 126 108 82 84 84 88 87 84 79 74 72 74 88 83 82 82 86 84 85 78 82 84 81 80 80 82 80
245 252 264 272 294 298 296 266 266 268 269 290 117 135 163 177 189 187 171 161 146 139 136 134 94 95 95 94 89 85 83 79 81 78 79 85 82 83 85 86 84 72 73 79 79 78 79 77 76
258 246 254 259 255 256 260 266 248 251 252 231 157 153 176 175 174 173 173 166 156 153 146 139 115 92 97 91 94 92 92 93 91 87 79 82 84 79 82 84 82 76 75 75 85 85 83 81 78
256 248 246 238 237 226 251 259 235 231 220 216 203 184 185 172 161 160 174 174 165 157 148 145 138 102 106 104 101 103 104 105 93 89 95 84 86 85 79 80 78 75 87 88 86 86 88 87 84
241 239 243 220 217 204 218 253 227 194 198 216 209 203 189 167 159 161 158 149 146 143 146 145 137 118 109 107 109 105 108 105 96 97 98 96 86 90 83 80 79 81 86 91 91 98 94 90 83
221 241 249 232 208 207 216 259 225 186 192 219 215 203 177 162 156 153 137 136 141 148 146 143 141 138 119 98 112 111 110 105 103 99 94 100 97 95 93 88 87 88 85 87 96 98 103 107 88
252 259 265 253 207 221 236 253 254 232 208 209 198 198 170 155 166 134 130 123 125 126 126 133 139 134 117 95 99 100 105 101 108 102 98 100 109 101 97 95 90 88 93 92 94 101 94 104 98
281 275 276 283 262 249 246 254 252 229 220 217 201 201 196 185 123 94 105 118 115 118 123 130 142 140 142 145 152 153 146 129 112 105 111 112 113 112 101 102 98 92 105 113 108 114 111 103 101
269 274 281 289 280 270 264 264 250 229 222 219 206 199 193 149 93 96 95 101 124 128 136 151 149 153 159 167 176 173 149 135 115 108 120 126 122 125 118 112 112 107 114 116 115 120 127 126 111
275 263 274 288 306 269 267 272 245 227 217 213 201 194 179 174 163 144 119 99 121 146 166 181 170 165 169 151 131 135 124 118 118 127 124 111 120 135 132 126 129 125 123 138 140 139 137 148 163
277 300 288 286 283 271 236 273 252 208 204 209 209 201 192 165 156 122 131 121 133 172 177 178 169 165 171 156 162 163 163 168 174 162 156 126 129 145 140 139 141 136 132 147 163 154 162 152 159
283 301 274 267 268 280 248 250 261 193 216 214 201 193 181 164 136 124 128 140 132 118 174 184 157 159 169 170 178 181 174 170 154 150 155 144 116 149 152 152 145 142 147 153 159 163 174 160 160
289 289 275 255 252 260 235 225 266 210 215 200 190 177 160 133 95 74 68 95 109 98 105 166 172 169 172 177 186 194 184 170 164 169 172 169 165 155 164 162 150 156 157 164 169 169 180 165 160
319 324 307 255 224 244 228 225 245 192 134 165 169 157 137 125 108 85 77 69 116 136 177 210 175 179 182 192 197 203 195 182 181 184 188 184 182 197 200 187 168 173 168 165 159 163 176 176 174
250 237 226 253 258 282 249 234 228 124 89 83 113 120 117 113 108 102 89 98 81 190 192 199 205 204 197 206 211 206 199 192 190 189 191 194 198 203 194 195 186 185 172 165 160 165 180 178 187
276 234 261 283 280 272 249 231 192 130 120 102 108 106 108 101 87 75 38 33 53 15 241 215 216 212 208 214 211 211 203 202 199 189 183 190 186 188 184 190 189 193 177 173 170 180 191 187 191
280 282 297 243 270 272 270 254 242 183 196 146 126 129 121 87 61 49 28 9 4 2 287 248 204 201 208 211 218 226 212 199 191 177 186 183 179 175 178 184 188 192 187 180 181 185 192 191 203
221 236 242 245 249 250 282 272 17 130 147 153 165 159 114 106 45 15 351 336 339 341 325 312 236 209 210 219 223 227 216 198 189 192 194 189 182 174 184 196 193 193 194 189 188 195 197 197 203
229 237 210 218 255 239 257 267 15 77 97 93 32 29 50 52 20 359 322 314 306 286 273 238 254 236 222 224 229 228 225 211 201 204 205 196 194 191 193 199 201 203 206 198 194 204 206 203 205
Height
1496 1497 1499 1502 1503 1503 1498 1490 1486 1487 1489 1492 1493 1494 1497 1502 1505 1514 1514 1512 1512 1513 1515 1517 1518 1520 1522 1524 1525 1526 1528 1529 1530 1531 1533 1534 1534 1535 1536 1537 1538 1539 1540 1540 1541 1542 1543 1544 1545
1495 1497 1501 1501 1502 1504 1496 1488 1488 1490 1492 1493 1495 1497 1499 1503 1506 1509 1510 1511 1512 1513 1515 1516 1518 1520 1522 1524 1525 1526 1528 1529 1530 1532 1533 1534 1535 1536 1537 1538 1539 1540 1540 1541 1542 1543 1544 1545 1546
1495 1497 1500 1498 1497 1497 1492 1487 1489 1491 1493 1494 1497 1499 1502 1505 1507 1508 1509 1510 1512 1513 1515 1517 1518 1520 1522 1523 1525 1526 1528 1529 1531 1532 1533 1534 1535 1536 1537 1538 1539 1540 1541 1542 1543 1544 1545 1545 1547
1496 1499 1498 1497 1494 1489 1488 1488 1489 1492 1494 1495 1497 1501 1504 1507 1507 1507 1508 1510 1511 1513 1515 1517 1519 1520 1522 1523 1524 1526 1528 1529 1531 1532 1533 1534 1535 1536 1538 1539 1540 1541 1541 1542 1543 1544 1545 1546 1548
1496 1497 1496 1495 1491 1488 1487 1489 1490 1492 1494 1496 1498 1501 1504 1507 1506 1507 1508 1509 1511 1513 1514 1516 1518 1520 1521 1523 1524 1526 1527 1529 1531 1532 1533 1535 1536 1537 1538 1539 1540 1541 1542 1543 1544 1545 1546 1547 1548
1496 1493 1495 1493 1489 1486 1487 1490 1491 1492 1494 1496 1498 1501 1504 1506 1505 1506 1508 1509 1511 1512 1514 1516 1518 1519 1521 1522 1524 1526 1527 1528 1530 1532 1533 1534 1536 1537 1538 1539 1540 1542 1542 1543 1544 1545 1547 1548 1549
1495 1493 1492 1489 1487 1486 1487 1489 1491 1492 1493 1496 1498 1500 1503 1504 1505 1506 1507 1509 1510 1512 1513 1515 1517 1519 1520 1522 1523 1525 1526 1528 1530 1531 1533 1534 1535 1537 1538 1539 1541 1542 1543 1544 1545 1546 1547 1549 1550
1493 1492 1489 1487 1486 1486 1487 1489 1491 1493 1494 1496 1498 1500 1502 1503 1503 1505 1507 1508 1510 1511 1513 1515 1516 1518 1519 1521 1522 1524 1525 1527 1529 1530 1532 1533 1535 1536 1538 1539 1541 1542 1543 1544 1545 1546 1548 1549 1550
1492 1495 1491 1487 1486 1486 1487 1489 1492 1493 1495 1496 1498 1499 1501 1501 1502 1504 1506 1507 1509 1511 1512 1514 1515 1517 1518 1520 1521 1523 1524 1526 1528 1530 1531 1533 1534 1536 1537 1539 1540 1541 1543 1544 1545 1546 1548 1549 1551
1492 1493 1488 1487 1486 1487 1488 1489 1492 1494 1495 1496 1498 1499 1499 1500 1501 1502 1504 1505 1507 1509 1511 1512 1514 1516 1517 1519 1520 1522 1523 1525 1526 1528 1530 1531 1533 1535 1537 1538 1540 1541 1542 1544 1545 1546 1548 1549 1551
1489 1489 1487 1488 1488 1488 1489 1491 1492 1493 1494 1496 1496 1497 1498 1499 1500 1501 1502 1504 1506 1508 1509 1511 1512 1514 1516 1517 1519 1520 1522 1524 1525 1527 1529 1530 1532 1534 1535 1537 1539 1540 1542 1543 1544 1546 1547 1549 1550
1488 1487 1487 1489 1489 1490 1490 1491 1492 1492 1494 1495 1495 1495 1496 1497 1498 1500 1501 1503 1504 1506 1507 1509 1511 1512 1514 1516 1517 1519 1521 1522 1524 1526 1527 1529 1531 1532 1534 1536 1538 1539 1541 1542 1543 1545 1546 1548 1550
1487 1487 1488 1489 1490 1490 1490 1490 1491 1492 1493 1493 1493 1494 1495 1496 1497 1498 1500 1502 1503 1504 1506 1507 1509 1510 1512 1514 1515 1517 1519 1521 1522 1524 1526 1527 1529 1530 1532 1534 1536 1538 1539 1541 1542 1544 1546 1547 1549
1486 1487 1488 1488 1488 1489 1490 1489 1490 1489 1491 1491 1491 1492 1493 1493 1494 1496 1498 1499 1501 1502 1504 1505 1507 1508 1510 1512 1514 1515 1517 1519 1521 1522 1524 1526 1527 1529 1531 1533 1535 1537 1538 1540 1541 1543 1545 1547 1548
1487 1487 1486 1486 1487 1487 1489 1489 1487 1487 1489 1489 1489 1490 1491 1492 1493 1493 1495 1497 1498 1500 1502 1503 1504 1506 1508 1510 1512 1513 1515 1517 1518 1520 1522 1524 1526 1527 1529 1531 1533 1535 1537 1539 1540 1542 1543 1545 1547
1486 1486 1486 1483 1484 1485 1491 1487 1485 1485 1486 1487 1488 1489 1489 1489 1490 1491 1493 1494 1496 1497 1499 1500 1502 1504 1506 1508 1509 1511 1513 1514 1516 1518 1520 1522 1524 1525 1527 1530 1532 1533 1535 1537 1538 1540 1542 1543 1545
1485 1486 1484 1483 1482 1483 1486 1485 1483 1483 1484 1484 1486 1486 1486 1487 1488 1489 1490 1491 1493 1495 1496 1498 1499 1501 1503 1505 1507 1509 1511 1512 1514 1516 1518 1519 1521 1523 1526 1528 1529 1531 1533 1535 1536 1538 1540 1542 1543
1485 1483 1481 1481 1481 1482 1484 1483 1482 1482 1482 1483 1484 1485 1485 1485 1486 1486 1487 1489 1490 1492 1494 1495 1496 1498 1500 1502 1504 1506 1508 1510 1511 1514 1515 1517 1519 1521 1523 1525 1527 1529 1531 1532 1534 1536 1538 1540 1541
1481 1482 1482 1480 1479 1481 1481 1480 1480 1480 1480 1481 1481 1482 1483 1484 1484 1485 1485 1486 1488 1489 1491 1493 1494 1495 1497 1499 1501 1503 1505 1507 1509 1511 1513 1515 1517 1518 1520 1523 1524 1526 1528 1530 1532 1534 1536 1538 1539
1481 1483 1482 1481 1480 1480 1479 1477 1476 1476 1477 1478 1479 1480 1481 1482 1482 1483 1483 1484 1485 1486 1488 1490 1491 1493 1495 1497 1499 1501 1502 1504 1506 1508 1511 1513 1514 1516 1518 1520 1522 1524 1526 1527 1529 1531 1533 1535 1537
1482 1483 1483 1483 1481 1479 1480 1477 1473 1472 1473 1475 1476 1478 1478 1479 1480 1480 1481 1481 1482 1484 1485 1486 1488 1490 1492 1494 1496 1498 1500 1502 1504 1505 1507 1509 1511 1513 1514 1517 1519 1521 1523 1524 1527 1529 1530 1532 1534
1484 1482 1482 1482 1485 1484 1481 1484 1472 1470 1471 1472 1474 1475 1476 1477 1478 1479 1479 1479 1480 1481 1482 1484 1485 1487 1489 1491 1492 1494 1495 1497 1499 1502 1504 1506 1509 1510 1512 1514 1516 1518 1520 1522 1524 1526 1528 1529 1531
1484 1482 1482 1482 1484 1486 1480 1484 1474 1468 1470 1470 1471 1473 1474 1476 1476 1477 1477 1477 1478 1479 1480 1481 1483 1484 1486 1488 1489 1491 1492 1494 1496 1499 1501 1503 1505 1507 1509 1511 1512 1515 1517 1519 1521 1523 1525 1527 1528
1483 1482 1481 1481 1484 1489 1477 1481 1472 1468 1466 1466 1468 1470 1472 1474 1474 1475 1475 1475 1476 1477 1478 1479 1480 1481 1483 1485 1486 1487 1489 1491 1493 1495 1496 1499 1501 1504 1506 1507 1509 1511 1514 1516 1518 1520 1522 1524 1526
1485 1489 1489 1487 1488 1482 1473 1475 1471 1464 1463 1463 1466 1468 1470 1472 1472 1473 1473 1473 1474 1475 1475 1476 1478 1478 1480 1481 1482 1484 1485 1487 1488 1490 1492 1494 1497 1499 1502 1504 1506 1508 1510 1512 1515 1517 1518 1520 1522
1486 1487 1493 1491 1484 1477 1475 1474 1467 1463 1463 1464 1465 1467 1469 1471 1471 1472 1472 1472 1472 1473 1473 1474 1475 1475 1477 1478 1479 1481 1482 1483 1485 1487 1488 1490 1493 1495 1498 1500 1502 1504 1506 1509 1511 1513 1515 1517 1518
1486 1488 1487 1490 1488 1487 1474 1466 1466 1464 1464 1465 1466 1467 1469 1470 1470 1471 1470 1471 1471 1471 1471 1471 1472 1473 1474 1475 1476 1477 1479 1480 1481 1483 1485 1487 1489 1491 1494 1496 1498 1500 1502 1505 1507 1509 1511 1512 1514
1487 1487 1490 1490 1489 1483 1471 1466 1465 1466 1465 1465 1466 1467 1468 1469 1469 1468 1469 1468 1468 1468 1468 1469 1469 1470 1471 1472 1473 1474 1475 1477 1478 1480 1481 1483 1485 1487 1489 1492 1494 1496 1498 1500 1502 1504 1506 1508 1509
1489 1489 1488 1488 1486 1487 1482 1472 1464 1463 1463 1464 1466 1466 1467 1467 1467 1467 1467 1467 1466 1466 1465 1466 1466 1467 1467 1468 1469 1470 1472 1473 1475 1476 1478 1479 1481 1483 1485 1487 1489 1491 1493 1495 1497 1500 1502 1503 1505
1486 1486 1488 1493 1490 1485 1485 1477 1464 1462 1462 1463 1465 1465 1466 1466 1465 1465 1465 1464 1464 1463 1463 1463 1463 1463 1464 1465 1466 1467 1468 1469 1471 1472 1474 1475 1477 1478 1480 1482 1484 1486 1488 1490 1492 1494 1496 1498 1499